{"data":{"norad_id":64583,"intl_designator":"2025-135BH","name":"CAPELLA-17 (ACADIA-7)","alt_names":[],"object_type":"PAYLOAD","status":"ACTIVE","operator":null,"country":"US","launch_date":"2025-06-23","launch_site_code":"AFWTR","launch_vehicle":null,"mission":null,"orbit_class":"UNKNOWN","rcs_meters":null,"size_class":null,"mass_kg":null,"dimensions":null,"purposes":[],"wikipedia_slug":null,"has_3d_model":false,"image_url":null,"decayed_at":null,"tle_current":{"epoch":"2026-05-24T23:49:55.549056Z","epoch_age_seconds":79608,"freshness":"FRESH","line1":"1 64583U 25135BH  26144.99300404  .00006723  00000+0  67665-3 0  9998","line2":"2 64583  97.7657 258.9623 0006595  82.8978 277.2990 14.91496011 50390","mean_motion":14.91496011,"eccentricity":0.0006595,"inclination_deg":97.7657,"raan_deg":258.9623,"arg_perigee_deg":82.8978,"mean_anomaly_deg":277.299,"bstar":0.00067665,"rev_number":5039,"period_min":96.547358449489,"perigee_km":588.67244858067,"apogee_km":597.86773453443,"semimajor_km":6971.4070915575,"source":"CELESTRAK","updated_at":"2026-05-25T13:38:04.625036Z"}}}